Asuncion, Paraguay

7:50 AM -04 en Mayo 20, 2018 (GMT -0400)
Silvio Pettirossi International

Tiempo Historia de SGAS - Mayo, 2018

Change the Weather History Date:

Miércoles, Mayo 16, 2018

  Actual Average Record
Temperature  
Temperatura media 72 ° F -  
Temperatura máxima 78 ° F 75 ° F 89 ° F (2003)
Temperatura mínima 64 ° F 58 ° F 46 ° F (2004)
Cooling Degree Days 6    
Growing Degree Days 22 (Base 50)    
Moisture  
Punto de rocío 65 ° F    
Average Humidity 83    
Maximum Humidity 95    
Minimum Humidity 57    
Precipitación  
Precipitación 0.00 pul 0.12 pul - ()
Presión al nivel del mar  
Presión al nivel del mar 29.99 pul    
Viento  
Velocidad del viento 5 mph ()    
Velocidad máxima del viento 13 mph    
Max Gust Speed -    
Visibilidad 7.6 Millas    
Eventos Tormenta    
Averages and records for this station are not official NWS values.
T = Trace of Precipitation, MM = Missing Value Source: Averaged Metar Reports

Daily Weather History Graph

Daily Weather History Graph

Search for Another Location

Airport or City:

Astronomía

May. 16, 2018 Salida Puesta
Hora real 6:20 AM -04 5:12 PM -04
Crepúsculo civil 5:55 AM -04 5:36 PM -04
Crepúsculo náutico 5:28 AM -04 6:04 PM -04
Crepúsculo astronómico 5:00 AM -04 6:31 PM -04
Luna 7:20 AM -04 (5/16) 6:34 PM -04 (5/16)
Horas de luz 11h 40m
Horas de luz
10h 52m
Luna nueva, 2% of the Moon is Illuminated
May 16
Luna nueva
May 21
Cuarto creciente
May 29
Luna llena
Jun 6
Cuarto menguante
Jun 13
Nueva

Hourly Weather History & Observations

Hora (-04) Temp. Índice de calor Punto de rocío Humedad Presión Visibilidad Wind Dir Velocidad del viento Velocidad de ráfagas Precip Eventos Condiciones
12:00 AM 66.2 ° F - 64.4 ° F 94% 29.92 pul 6.2 mi Sin viento Sin viento - N/A Tormenta Muy nublado
1:00 AM 66.2 ° F - 64.4 ° F 94% 29.92 pul 6.2 mi Sur 6.9 mph - N/A Tormenta Muy nublado
2:00 AM 65 ° F - 64 ° F 95% 29.94 pul 12 mi Sin viento Sin viento - -   Parcialmente nublado
2:00 AM 66.2 ° F - 64.4 ° F 94% 29.92 pul 6.2 mi Sin viento Sin viento - N/A Tormenta Muy nublado
3:00 AM 66.2 ° F - 64.4 ° F 94% 29.92 pul 6.2 mi Sur 5.8 mph - N/A Tormenta Parcialmente nublado
4:00 AM 66.2 ° F - 64.4 ° F 94% 29.92 pul 6.2 mi Sur 10.4 mph - N/A   Nublado
5:00 AM 66 ° F - 64 ° F 89% 29.96 pul 12 mi Sur 12.7 mph - -   Nublado
5:00 AM 66.2 ° F - 62.6 ° F 88% 29.95 pul 6.2 mi Sur 12.7 mph - N/A   Nublado
6:00 AM 66.2 ° F - 64.4 ° F 94% 29.98 pul 6.2 mi SSE 5.8 mph - N/A Tormenta Muy nublado
7:00 AM 66.2 ° F - 62.6 ° F 88% 30.01 pul 6.2 mi ESE 4.6 mph - N/A   Muy nublado
7:30 AM 66.2 ° F - 62.6 ° F 88% 30.01 pul 6.2 mi SSE 5.8 mph - N/A   Nublado
8:00 AM 66 ° F - 64 ° F 90% 30.02 pul 12 mi SSE 5.8 mph - -   Nublado
8:00 AM 66.2 ° F - 64.4 ° F 94% 30.01 pul 6.2 mi SSE 5.8 mph - N/A   Nublado
8:30 AM 66.2 ° F - 64.4 ° F 94% 30.04 pul 6.2 mi SSE 8.1 mph - N/A   Nublado
9:00 AM 68.0 ° F - 64.4 ° F 88% 30.04 pul 6.2 mi ESE 5.8 mph - N/A   Nublado
9:30 AM 69.8 ° F - 64.4 ° F 83% 30.04 pul 6.2 mi SSE 6.9 mph - N/A   Nublado
10:00 AM 69.8 ° F - 64.4 ° F 83% 30.04 pul 6.2 mi SSE 6.9 mph - N/A   Nublado
11:00 AM 72 ° F - 66 ° F 75% 30.04 pul 12 mi SSE 5.8 mph - -   Muy nublado
11:00 AM 73.4 ° F - 64.4 ° F 73% 30.04 pul 6.2 mi SSE 5.8 mph - N/A   Muy nublado
12:00 PM 77.0 ° F - 64.4 ° F 65% 30.01 pul 6.2 mi Variable 5.8 mph - N/A   Parcialmente nublado
1:00 PM 78.8 ° F - 66.2 ° F 65% 29.98 pul 6.2 mi Variable 4.6 mph - N/A   Nubes dispersas
2:00 PM 78 ° F - 65 ° F 57% 30.00 pul 12 mi OSO 2.3 mph - -   Muy nublado
2:00 PM 80.6 ° F 83.2 ° F 68.0 ° F 65% 29.98 pul 6.2 mi Variable 2.3 mph - N/A   Muy nublado
3:00 PM 78.8 ° F - 66.2 ° F 65% 29.98 pul 6.2 mi Sur 4.6 mph - N/A   Muy nublado
4:00 PM 75.2 ° F - 66.2 ° F 73% 29.98 pul 6.2 mi Sur 5.8 mph - N/A   Muy nublado
5:00 PM 76 ° F - 66 ° F 65% 29.99 pul 12 mi Sur 5.8 mph - -   Parcialmente nublado
5:00 PM 75.2 ° F - 66.2 ° F 73% 29.95 pul 6.2 mi Sur 5.8 mph - N/A   Muy nublado
6:00 PM 73.4 ° F - 66.2 ° F 78% 29.95 pul 6.2 mi Sur 6.9 mph - N/A   Muy nublado
7:00 PM 69.8 ° F - 66.2 ° F 88% 29.98 pul - Sur 9.2 mph - N/A   Despejado
8:00 PM 69 ° F - 65 ° F 83% 30.00 pul 12 mi Sur 9.2 mph - -   Nubes dispersas
8:00 PM 68.0 ° F - 64.4 ° F 88% 29.98 pul - Sur 9.2 mph - N/A   Despejado
9:00 PM 68.0 ° F - 64.4 ° F 88% 29.98 pul - SSE 8.1 mph - N/A   Despejado
10:00 PM 66.2 ° F - 64.4 ° F 94% 30.01 pul - Sur 2.3 mph - N/A   Despejado
11:00 PM 64.4 ° F - 62.6 ° F 94% 30.01 pul - Sin viento Sin viento - N/A   Despejado